This is the latest recevied weather packets stored in our database for station/object DJ2DS-13. If no packets are shown the sender has not sent any weather packets the latest 10 day(s).
| Time | Temp. | Humidity | Pressure | Rain* | Wind** | Luminosity | Snow |
|---|---|---|---|---|---|---|---|
| 1778067763 | 13.89° C | 66% | 1008.4 hPa | 0 mm | - | 452 W/m² | - |
| 1778067471 | 13.89° C | 66% | 1008.5 hPa | 0 mm | - | 512 W/m² | - |
| 1778067169 | 13.33° C | 65% | 1008.5 hPa | 0 mm | - | 526 W/m² | - |
| 1778066870 | 13.33° C | 66% | 1008.4 hPa | 0 mm | - | 515 W/m² | - |
| 1778066568 | 13.33° C | 66% | 1008.5 hPa | 0 mm | - | 494 W/m² | - |
| 1778066267 | 13.33° C | 66% | 1008.4 hPa | 0 mm | - | 447 W/m² | - |
| 1778065966 | 13.33° C | 68% | 1008.3 hPa | 0 mm | - | 420 W/m² | - |
| 1778065665 | 13.33° C | 67% | 1008.4 hPa | 0 mm | - | 394 W/m² | - |
| 1778065362 | 13.33° C | 66% | 1008.4 hPa | 0 mm | - | 382 W/m² | - |
| 1778065062 | 13.33° C | 67% | 1008.3 hPa | 0 mm | - | 397 W/m² | - |
| 1778064761 | 13.33° C | 69% | 1008.3 hPa | 0 mm | - | 484 W/m² | - |
| 1778064461 | 13.33° C | 67% | 1008.3 hPa | 0 mm | - | 448 W/m² | - |
| 1778064162 | 13.33° C | 68% | 1008.3 hPa | 0 mm | - | 420 W/m² | - |
| 1778063861 | 13.33° C | 68% | 1008.3 hPa | 0 mm | - | 399 W/m² | - |
| 1778063562 | 13.33° C | 68% | 1008.2 hPa | 0 mm | - | 394 W/m² | - |
| 1778063260 | 13.33° C | 68% | 1008.3 hPa | 0 mm | - | 387 W/m² | - |
| 1778062960 | 13.33° C | 67% | 1008.2 hPa | 0 mm | - | 399 W/m² | - |
| 1778062660 | 13.33° C | 65% | 1008.2 hPa | 0 mm | - | 397 W/m² | - |
| 1778062360 | 13.33° C | 68% | 1008.2 hPa | 0 mm | - | 394 W/m² | - |
| 1778062061 | 13.33° C | 67% | 1008.1 hPa | 0 mm | - | 380 W/m² | - |
| 1778061760 | 13.33° C | 67% | 1008.2 hPa | 0 mm | - | 368 W/m² | - |
| 1778061460 | 12.78° C | 67% | 1008.1 hPa | 0 mm | - | 371 W/m² | - |
| 1778061160 | 12.78° C | 68% | 1008.1 hPa | 0 mm | - | 373 W/m² | - |
| 1778060859 | 12.78° C | 67% | 1008.2 hPa | 0 mm | - | 366 W/m² | - |
| 1778060560 | 12.78° C | 68% | 1008.1 hPa | 0 mm | - | 352 W/m² | - |
* Rain latest hour (hover to see other rain measurements)
** Current wind speed in m/s (hover to see current wind gust speed)